1515276000.8,55069,10.06,73258.5,-3.77,-5.19,-5.23,0,*55
1515276002.08,55070,10.06,73256.8,-3.77,-5.19,-5.31,0,*5E
1515276003.32,55071,10.06,73256.8,-3.77,-5.31,-5.35,0,*51
1515276004.6,55072,10.06,73256.0,-3.77,-5.23,-5.31,0,*55
1515276005.88,55073,10.06,73254.0,-3.77,-5.23,-5.31,0,*54
1515276007.13,55074,10.06,73262.3,-3.79,-5.23,-5.31,0,*5D
1515276008.41,55075,10.06,73258.8,-3.77,-5.31,-5.31,0,*51
1515276009.69,55076,10.06,73250.5,-3.77,-5.23,-5.31,0,*51
1515276010.94,55077,10.06,73248.8,-3.77,-5.23,-5.35,0,*54
1515276012.16,55078,10.06,73244.8,-3.79,-5.31,-5.35,0,*56
1515276013.41,55079,10.06,73240.5,-3.77,-5.23,-5.35,0,*5A
1515276014.66,55080,10.0,73238.8,-3.77,-5.31,-5.35,0,*5F
1515276015.91,55081,10.06,73236.8,-3.77,-5.31,-5.35,0,*5E
1515276017.13,55082,10.06,73242.8,-3.79,-5.23,-5.43,0,*51
1515276018.38,55083,10.06,73246.8,-3.77,-5.31,-5.43,0,*5D
1515276019.63,55084,10.06,73250.3,-3.77,-5.23,-5.35,0,*58
1515276020.85,55085,10.06,73254.5,-3.79,-5.31,-5.35,0,*54
1515276022.07,55086,10.06,73254.0,-3.79,-5.31,-5.35,0,*57
1515276023.3,55087,10.06,73252.8,-3.79,-5.31,-5.43,0,*57
1515276024.54,55088,10.06,73252.0,-3.77,-5.31,-5.43,0,*56
1515276025.79,55089,10.06,73252.5,-3.77,-5.31,-5.43,0,*57
1515276027.01,55090,10.06,73256.3,-3.79,-5.31,-5.35,0,*50
1515276028.26,55091,10.06,73258.5,-3.77,-5.31,-5.47,0,*5A
1515276029.46,55092,10.06,73252.3,-3.79,-5.43,-5.47,0,*52
1515276030.68,55093,10.06,73258.0,-3.77,-5.47,-5.47,0,*59
1515276031.9,55094,10.06,73256.8,-3.77,-5.47,-5.47,0,*5E
1515276033.13,55095,10.06,73252.3,-3.77,-5.47,-5.51,0,*58
1515276034.37,55096,10.06,73258.8,-3.79,-5.61,-5.61,0,*52
1515276035.62,55097,10.06,73248.0,-3.79,-5.73,-5.65,0,*54
1515276036.88,55098,10.06,73250.5,-3.77,-5.73,-5.65,0,*55
1515276038.15,55099,10.06,73248.8,-3.77,-5.73,-5.61,0,*50
1515276039.4,55100,10.06,73252.0,-3.79,-5.77,-5.61,0,*5B
1515276040.68,55101,10.06,73252.3,-3.77,-5.77,-5.61,0,*54
1515276041.96,55102,10.06,73252.8,-3.77,-5.77,-5.61,0,*57
1515276043.18,55103,10.06,73252.0,-3.79,-5.77,-5.51,0,*5B
1515276044.43,55104,10.06,73254.8,-3.77,-5.73,-5.51,0,*56
1515276045.67,55105,10.06,73252.5,-3.77,-5.73,-5.51,0,*57
1515276046.91,55106,10.06,73252.0,-3.77,-5.73,-5.47,0,*53
1515276048.13,55107,10.06,73252.0,-3.79,-5.61,-5.43,0,*5B
1515276049.38,55108,10.06,73250.8,-3.77,-5.65,-5.47,0,*5A
1515276050.63,55109,10.06,73248.5,-3.77,-5.65,-5.51,0,*5C
1515276051.87,55110,10.06,73248.0,-3.77,-5.65,-5.47,0,*53
1515276053.12,55111,10.06,73250.0,-3.77,-5.61,-5.47,0,*56
1515276054.36,55112,10.06,73250.5,-3.77,-5.65,-5.43,0,*55
1515276055.61,55113,10.06,73250.5,-3.77,-5.61,-5.35,0,*51
1515276056.85,55114,10.06,73250.3,-3.77,-5.61,-5.43,0,*57
1515276058.09,55115,10.06,73250.5,-3.77,-5.65,-5.35,0,*53
1515276059.34,55116,10.06,73252.3,-3.77,-5.65,-5.43,0,*51
1515276060.56,55117,10.06,73254.0,-3.79,-5.61,-5.35,0,*5B
1515276061.8,55118,10.06,73252.0,-3.77,-5.61,-5.43,0,*5B
1515276063.04,55119,10.06,73250.8,-3.77,-5.61,-5.43,0,*5A
1515276064.29,55120,10.06,73248.5,-3.77,-5.61,-5.35,0,*51
1515276065.53,55121,10.06,73246.3,-3.77,-5.61,-5.43,0,*51
1515276066.75,55122,10.06,73238.8,-3.79,-5.61,-5.35,0,*5D
1515276067.97,55123,10.06,73238.5,-3.77,-5.47,-5.35,0,*56
1515276069.19,55124,10.06,73232.5,-3.77,-5.51,-5.35,0,*56
1515276070.44,55125,10.06,73232.5,-3.77,-5.61,-5.35,0,*54
1515276071.66,55126,10.06,73230.3,-3.79,-5.61,-5.35,0,*59
1515276072.85,55127,10.06,73236.8,-3.79,-5.43,-5.35,0,*58
1515276074.06,55128,10.06,73238.8,-3.77,-5.43,-5.35,0,*59
1515276075.28,55129,10.06,73232.3,-3.77,-5.35,-5.35,0,*59
1515276076.5,55130,10.06,73234.0,-3.77,-5.35,-5.43,0,*50
1515276077.72,55131,10.06,73236.3,-3.77,-5.35,-5.43,0,*51
1515276078.92,55132,10.06,73238.0,-3.79,-5.35,-5.35,0,*5D
1515276080.14,55133,10.06,73238.5,-3.77,-5.35,-5.43,0,*53
1515276081.35,55134,10.06,73234.8,-3.77,-5.35,-5.43,0,*54
1515276082.6,55135,10.06,73236.8,-3.77,-5.31,-5.35,0,*50
1515276083.83,55136,10.06,73236.3,-3.79,-5.31,-5.43,0,*5C
1515276085.04,55137,10.06,73240.0,-3.77,-5.35,-5.35,0,*56
1515276086.26,55138,10.0,73236.3,-3.77,-5.35,-5.43,0,*58
1515276087.51,55139,10.06,73240.8,-3.77,-5.31,-5.35,0,*5C
1515276088.76,55140,10.06,73242.0,-3.77,-5.31,-5.35,0,*52
1515276090.01,55141,10.06,73244.3,-3.77,-5.31,-5.35,0,*53
1515276091.26,55142,10.06,73244.5,-3.79,-5.31,-5.31,0,*5A
1515276092.52,55143,10.06,73240.0,-3.79,-5.23,-5.31,0,*58
1515276093.77,55144,10.06,73244.3,-3.79,-5.31,-5.23,0,*5F
1515276095.05,55145,10.06,73244.5,-3.77,-5.23,-5.31,0,*50
1515276096.33,55146,10.06,73246.5,-3.77,-5.23,-5.23,0,*50
1515276097.61,55147,10.06,73246.3,-3.77,-5.23,-5.31,0,*52
1515276098.89,55148,10.06,73242.3,-3.77,-5.23,-5.23,0,*5E
1515276100.15,55149,10.06,73242.3,-3.79,-5.31,-5.23,0,*52
1515276101.4,55150,10.06,73240.3,-3.79,-5.23,-5.31,0,*5A
1515276102.68,55151,10.06,73244.3,-3.77,-5.31,-5.31,0,*56
1515276103.96,55152,10.06,73244.0,-3.77,-5.23,-5.31,0,*56
1515276105.21,55153,10.06,73250.8,-3.75,-5.27,-5.27,0,*56
1515276106.49,55154,10.06,73244.0,-3.77,-5.31,-5.31,0,*53
1515276107.71,55155,10.06,73250.0,-3.79,-5.23,-5.43,0,*5A
1515276108.99,55156,10.06,73250.3,-3.77,-5.23,-5.31,0,*52
1515276110.27,55157,10.06,73250.5,-3.77,-5.31,-5.31,0,*50
1515276111.49,55158,10.06,73248.0,-3.79,-5.31,-5.35,0,*55
1515276112.74,55159,10.06,73250.3,-3.77,-5.31,-5.35,0,*5A
1515276113.96,55160,10.06,73248.0,-3.77,-5.35,-5.35,0,*54
1515276115.15,55161,10.0,73246.5,-3.79,-5.35,-5.35,0,*5B
1515276116.37,55162,10.06,73246.3,-3.77,-5.35,-5.35,0,*56
1515276117.57,55163,10.0,73246.8,-3.79,-5.35,-5.35,0,*59
1515276118.79,55164,10.06,73254.8,-3.79,-5.23,-5.35,0,*59
1515276120.04,55165,10.06,73252.8,-3.77,-5.31,-5.35,0,*55
1515276121.29,55166,10.06,73258.3,-3.77,-5.31,-5.35,0,*56
1515276122.54,55167,10.06,73256.5,-3.77,-5.31,-5.35,0,*57
1515276123.76,55168,10.06,73260.0,-3.79,-5.31,-5.43,0,*57
1515276124.95,55169,10.06,73258.8,-3.79,-5.35,-5.43,0,*52
1515276126.17,55170,10.06,73258.0,-3.77,-5.35,-5.43,0,*54
1515276127.39,55171,10.06,73256.5,-3.77,-5.35,-5.47,0,*51
1515276128.61,55172,10.06,73256.8,-3.77,-5.35,-5.43,0,*56
1515276129.81,55173,10.06,73254.8,-3.79,-5.35,-5.35,0,*58
1515276131.02,55174,10.06,73256.3,-3.77,-5.43,-5.47,0,*55
1515276132.24,55175,10.06,73250.5,-3.77,-5.35,-5.43,0,*51
1515276133.46,55176,10.06,73250.5,-3.77,-5.35,-5.43,0,*52
1515276134.68,55177,10.06,73250.8,-3.77,-5.35,-5.43,0,*53
1515276135.9,55178,10.06,73254.0,-3.77,-5.35,-5.47,0,*58
1515276137.09,55179,10.06,73256.0,-3.79,-5.35,-5.47,0,*57
1515276138.31,55180,10.06,73258.0,-3.77,-5.43,-5.47,0,*5E
1515276139.54,55181,10.06,73262.0,-3.77,-5.51,-5.51,0,*5B
1515276140.78,55182,10.06,73264.8,-3.77,-5.61,-5.51,0,*5B
1515276142.05,55183,10.06,73266.0,-3.77,-5.61,-5.65,0,*5D
1515276143.33,55184,10.06,73268.3,-3.77,-5.65,-5.61,0,*5A
1515276144.58,55185,10.06,73264.8,-3.79,-5.65,-5.61,0,*55
1515276145.82,55186,10.06,73268.8,-3.77,-5.73,-5.51,0,*5C
1515276147.07,55187,10.06,73266.5,-3.77,-5.65,-5.47,0,*5D
1515276148.32,55188,10.06,73264.0,-3.77,-5.61,-5.51,0,*51
1515276149.56,55189,10.06,73262.3,-3.77,-5.65,-5.47,0,*53
1515276150.81,55190,10.06,73260.3,-3.77,-5.73,-5.47,0,*5C
1515276152.05,55191,10.06,73258.0,-3.77,-5.65,-5.47,0,*5A
1515276153.3,55192,10.06,73258.3,-3.77,-5.65,-5.35,0,*5C
1515276154.54,55193,10.06,73256.0,-3.77,-5.61,-5.35,0,*59
1515276155.79,55194,10.06,73254.8,-3.77,-5.65,-5.35,0,*5A
1515276157.03,55195,10.06,73252.5,-3.77,-5.61,-5.35,0,*5F
1515276158.25,55196,10.06,73252.0,-3.77,-5.51,-5.35,0,*5F
1515276159.5,55197,10.06,73246.3,-3.77,-5.61,-5.35,0,*5D
1515276160.75,55198,10.06,73250.3,-3.77,-5.47,-5.23,0,*51
1515276162.0,55199,10.06,73250.5,-3.77,-5.47,-5.31,0,*53
1515276163.25,55200,10.06,73248.0,-3.77,-5.47,-5.31,0,*50
1515276164.51,55201,10.06,73250.5,-3.77,-5.51,-5.31,0,*56
1515276165.76,55202,10.06,73248.3,-3.77,-5.51,-5.31,0,*55
1515276167.0,55203,10.06,73246.8,-3.77,-5.43,-5.31,0,*57
1515276168.26,55204,10.06,73244.3,-3.77,-5.51,-5.23,0,*50
1515276169.5,55205,10.06,73246.0,-3.77,-5.43,-5.31,0,*51
1515276170.76,55206,10.0,73244.5,-3.77,-5.35,-5.23,0,*50
1515276172.0,55207,10.06,73246.0,-3.77,-5.35,-5.31,0,*52
1515276173.26,55208,10.06,73246.3,-3.77,-5.35,-5.23,0,*5E
1515276174.51,55209,10.06,73246.5,-3.75,-5.31,-5.19,0,*50
1515276175.74,55210,10.06,73246.0,-3.75,-5.39,-5.19,0,*50
1515276176.99,55211,10.06,73244.5,-3.75,-5.31,-5.27,0,*54
1515276178.24,55212,10.06,73246.3,-3.77,-5.35,-5.31,0,*56
1515276179.49,55213,10.06,73246.8,-3.77,-5.35,-5.31,0,*57
1515276180.77,55214,10.06,73246.8,-3.77,-5.31,-5.31,0,*54
1515276182.05,55215,10.06,73250.0,-3.77,-5.31,-5.31,0,*55
1515276183.33,55216,10.06,73250.3,-3.77,-5.31,-5.23,0,*55
1515276184.61,55217,10.06,73250.0,-3.77,-5.31,-5.23,0,*54
1515276185.88,55218,10.06,73248.5,-3.77,-5.31,-5.31,0,*58
1515276187.14,55219,10.06,73248.3,-3.75,-5.27,-5.27,0,*5B
1515276188.39,55220,10.06,73248.5,-3.75,-5.27,-5.19,0,*5C
1515276189.66,55221,10.06,73248.3,-3.77,-5.23,-5.31,0,*51
1515276190.92,55222,10.06,73254.8,-3.75,-5.27,-5.27,0,*53
1515276192.17,55223,10.06,73252.3,-3.75,-5.27,-5.27,0,*52
1515276193.42,55224,10.06,73252.5,-3.75,-5.27,-5.27,0,*55
1515276194.67,55225,10.06,73252.8,-3.75,-5.19,-5.19,0,*54
1515276195.93,55226,10.06,73256.0,-3.75,-5.19,-5.19,0,*57
1515276197.18,55227,10.06,73254.5,-3.75,-5.19,-5.15,0,*5A
1515276198.45,55228,10.06,73256.5,-3.77,-5.23,-5.19,0,*52
1515276199.71,55229,10.06,73254.5,-3.75,-5.15,-5.19,0,*54
1515276200.96,55230,10.06,73258.0,-3.75,-5.19,-5.19,0,*50
1515276202.21,55231,10.0,73252.3,-3.75,-5.19,-5.19,0,*51
1515276203.46,55232,10.06,73254.5,-3.75,-5.19,-5.15,0,*5E
1515276204.71,55233,10.06,73250.3,-3.75,-5.27,-5.19,0,*5E
1515276205.99,55234,10.06,73252.5,-3.77,-5.23,-5.23,0,*56
1515276207.27,55235,10.06,73250.0,-3.77,-5.23,-5.11,0,*56
1515276208.52,55236,10.06,73252.0,-3.75,-5.19,-5.15,0,*5A
1515276209.78,55237,10.0,73250.3,-3.75,-5.07,-5.07,0,*57
1515276211.06,55238,10.06,73250.3,-3.73,-5.15,-5.07,0,*5D
1515276212.32,55239,10.0,73248.0,-3.75,-5.15,-5.07,0,*5A
1515276213.58,55240,10.06,73250.3,-3.75,-5.15,-5.07,0,*54
1515276214.83,55241,10.0,73250.3,-3.75,-5.15,-5.03,0,*51
1515276216.09,55242,10.06,73252.0,-3.75,-5.15,-5.15,0,*55
1515276217.34,55243,10.06,73252.3,-3.75,-5.07,-5.03,0,*50
1515276218.6,55244,10.06,73248.8,-3.75,-5.07,-5.03,0,*57
1515276219.88,55245,10.06,73248.5,-3.73,-5.03,-4.93,0,*5C
1515276221.16,55246,10.0,73242.5,-3.73,-5.03,-5.03,0,*57
1515276222.4,55247,10.06,73246.0,-3.75,-4.93,-4.93,0,*50
1515276223.64,55248,10.06,73240.3,-3.75,-4.93,-4.93,0,*5F
1515276224.9,55249,10.06,73240.5,-3.75,-5.03,-5.03,0,*5E
1515276226.17,55250,10.06,73242.5,-3.73,-5.03,-4.93,0,*58
1515276227.45,55251,10.06,73242.5,-3.73,-4.93,-5.03,0,*59
1515276228.7,55252,10.06,73246.0,-3.75,-5.03,-5.03,0,*54
1515276229.98,55253,10.06,73244.3,-3.73,-5.03,-4.93,0,*5B
1515276231.22,55254,10.06,73244.5,-3.75,-4.93,-4.93,0,*52
1515276232.46,55255,10.0,73246.8,-3.75,-4.93,-4.93,0,*53
1515276233.73,55256,10.06,73246.3,-3.73,-4.93,-4.93,0,*56
1515276234.98,55257,10.0,73242.8,-3.75,-5.03,-4.89,0,*52
1515276236.25,55258,10.06,73244.8,-3.73,-4.93,-4.89,0,*53
1515276237.54,55259,10.06,73248.3,-3.73,-5.03,-4.89,0,*5A
1515276238.81,55260,10.06,73248.8,-3.73,-4.93,-4.89,0,*58
1515276240.07,55261,10.06,73252.0,-3.73,-4.93,-4.93,0,*52
1515276241.35,55262,10.06,73254.3,-3.73,-5.03,-4.93,0,*59
1515276242.6,55263,10.06,73258.3,-3.75,-5.03,-4.93,0,*5E
1515276243.89,55264,10.0,73250.5,-3.73,-5.03,-5.03,0,*57
1515276245.17,55265,10.0,73248.5,-3.73,-5.03,-5.03,0,*56
1515276246.42,55266,10.06,73256.3,-3.75,-4.93,-5.03,0,*5B
1515276247.69,55267,10.06,73252.3,-3.73,-4.93,-4.89,0,*5F
1515276248.97,55268,10.06,73254.8,-3.73,-5.03,-4.93,0,*53
1515276250.23,55269,10.0,73254.5,-3.75,-5.03,-5.03,0,*5C
1515276251.5,55270,10.06,73258.5,-3.73,-4.93,-5.03,0,*5A
1515276252.79,55271,10.06,73258.0,-3.73,-5.03,-5.03,0,*53
1515276254.06,55272,10.0,73254.5,-3.73,-5.03,-4.93,0,*58
1515276255.34,55273,10.06,73256.5,-3.73,-5.03,-4.93,0,*59
1515276256.61,55274,10.06,73254.3,-3.73,-4.93,-4.93,0,*56
1515276257.88,55275,10.0,73254.5,-3.73,-4.93,-5.03,0,*5F
1515276259.16,55276,10.06,73256.5,-3.73,-5.03,-4.93,0,*5C
1515276260.41,55277,10.06,73254.3,-3.75,-4.93,-4.89,0,*58
1515276261.65,55278,10.06,73254.0,-3.75,-4.93,-4.89,0,*57
1515276262.92,55279,10.06,73254.0,-3.73,-4.93,-4.85,0,*5C
1515276264.19,55280,10.06,73256.8,-3.73,-4.93,-5.03,0,*55
1515276265.44,55281,10.06,73254.3,-3.75,-5.03,-4.93,0,*52
1515276266.72,55282,10.0,73254.0,-3.73,-5.03,-4.89,0,*5C
1515276268.0,55283,10.06,73256.5,-3.73,-5.03,-4.93,0,*56
1515276269.28,55284,10.06,73256.3,-3.73,-5.03,-4.93,0,*51
1515276270.56,55285,10.06,73258.8,-3.73,-5.03,-4.93,0,*50
1515276271.83,55286,10.06,73260.0,-3.73,-4.93,-4.93,0,*5B
1515276273.07,55287,10.06,73258.5,-3.75,-4.93,-4.81,0,*5F
1515276274.34,55288,10.06,73258.8,-3.71,-4.89,-4.85,0,*5B
1515276275.62,55289,10.06,73258.0,-3.73,-4.81,-4.81,0,*54
1515276276.88,55290,10.06,73256.8,-3.71,-4.85,-4.85,0,*5E
1515276278.12,55291,10.0,73254.5,-3.75,-4.77,-4.69,0,*54
1515276279.39,55292,10.06,73260.5,-3.73,-4.81,-4.77,0,*57
1515276280.66,55293,10.0,73256.0,-3.73,-4.81,-4.77,0,*56
1515276281.91,55294,10.0,73254.8,-3.75,-4.89,-4.89,0,*5E
1515276283.17,55295,10.06,73256.8,-3.71,-4.85,-4.77,0,*56
1515276284.45,55296,10.0,73256.8,-3.73,-4.93,-4.89,0,*51
1515276285.72,55297,10.06,73260.5,-3.73,-4.93,-4.89,0,*50
1515276286.96,55298,10.0,73258.3,-3.75,-4.93,-4.89,0,*59
1515276288.23,55299,10.06,73256.8,-3.73,-4.81,-4.81,0,*55
1515276289.51,55300,10.06,73254.8,-3.73,-4.81,-4.81,0,*54
1515276290.78,55301,10.0,73254.8,-3.73,-4.81,-4.77,0,*5C
1515276292.05,55302,10.06,73258.0,-3.73,-4.89,-4.81,0,*5E
1515276293.33,55303,10.06,73256.5,-3.73,-4.89,-4.89,0,*57
1515276294.6,55304,10.06,73258.5,-3.73,-4.93,-4.93,0,*50
1515276295.87,55305,10.0,73254.5,-3.73,-4.93,-4.93,0,*51
1515276297.14,55306,10.0,73254.8,-3.73,-4.93,-4.93,0,*52
1515276298.4,55307,10.06,73256.3,-3.73,-4.93,-4.93,0,*53
1515276299.67,55308,10.0,73252.5,-3.73,-4.93,-4.93,0,*5C
1515276300.95,55309,10.06,73252.0,-3.73,-4.93,-5.03,0,*55
1515276302.22,55310,10.06,73254.0,-3.73,-4.89,-4.93,0,*5E
1515276303.46,55311,10.06,73248.3,-3.75,-4.93,-4.93,0,*52
1515276304.7,55312,10.06,73250.5,-3.75,-4.93,-4.93,0,*51
1515276305.97,55313,10.06,73250.5,-3.73,-4.89,-4.93,0,*5D
1515276307.24,55314,10.06,73254.8,-3.73,-4.93,-4.93,0,*51
1515276308.51,55315,10.06,73254.8,-3.73,-4.81,-4.93,0,*53
1515276309.79,55316,10.06,73252.0,-3.73,-4.89,-4.81,0,*5B
1515276311.07,55317,10.06,73256.5,-3.73,-4.89,-4.89,0,*52
1515276312.34,55318,10.06,73256.0,-3.73,-4.89,-4.81,0,*55
1515276313.62,55319,10.06,73256.3,-3.73,-4.89,-4.81,0,*54
1515276314.89,55320,10.06,73256.5,-3.73,-4.81,-4.81,0,*56
1515276316.16,55321,10.06,73262.3,-3.71,-4.85,-4.77,0,*58
1515276317.42,55322,10.06,73260.5,-3.71,-4.77,-4.73,0,*52
1515276318.68,55323,10.06,73262.0,-3.71,-4.77,-4.85,0,*5A
1515276319.96,55324,10.06,73260.0,-3.73,-4.81,-4.81,0,*52
1515276321.22,55325,10.06,73262.0,-3.71,-4.85,-4.85,0,*51
1515276322.49,55326,10.0,73260.3,-3.71,-4.85,-4.89,0,*5E
1515276323.76,55327,10.0,73258.8,-3.73,-4.81,-4.93,0,*52
1515276325.03,55328,10.06,73260.3,-3.73,-4.89,-4.93,0,*55
1515276326.31,55329,10.06,73262.3,-3.73,-5.03,-4.93,0,*57
1515276327.56,55330,10.0,73260.3,-3.75,-5.03,-4.93,0,*59
1515276328.83,55331,10.06,73260.0,-3.73,-4.93,-4.93,0,*56
1515276330.1,55332,10.0,73256.3,-3.73,-4.93,-4.93,0,*55
1515276331.36,55333,10.06,73258.5,-3.71,-4.85,-4.89,0,*5A
1515276332.64,55334,10.06,73256.8,-3.71,-4.89,-4.89,0,*51
1515276333.88,55335,10.06,73252.5,-3.71,-4.89,-4.99,0,*51
1515276335.12,55336,10.06,73252.3,-3.71,-4.89,-4.99,0,*52
1515276336.37,55337,10.06,73252.3,-3.71,-4.99,-5.03,0,*50
1515276337.62,55338,10.0,73248.8,-3.71,-4.99,-5.03,0,*5F
1515276338.89,55339,10.0,73244.0,-3.71,-4.89,-5.03,0,*5F
1515276340.18,55340,10.0,73244.0,-3.73,-5.03,-5.03,0,*50
1515276341.46,55341,10.06,73244.0,-3.73,-5.03,-4.93,0,*59
1515276342.71,55342,10.06,73246.5,-3.75,-4.89,-5.03,0,*57
1515276343.99,55343,10.06,73248.3,-3.73,-5.03,-4.93,0,*5B
1515276345.27,55344,10.06,73250.5,-3.73,-5.03,-5.03,0,*54
1515276346.54,55345,10.0,73248.3,-3.73,-4.93,-4.93,0,*55
1515276347.82,55346,10.06,73250.8,-3.73,-5.03,-4.93,0,*5E
1515276349.1,55347,10.06,73250.5,-3.73,-5.03,-4.93,0,*5F
1515276350.38,55348,10.06,73250.5,-3.73,-5.03,-5.03,0,*58
1515276351.67,55349,10.0,73248.5,-3.73,-5.03,-5.03,0,*59
1515276352.95,55350,10.06,73250.5,-3.73,-5.07,-5.15,0,*52
1515276354.24,55351,10.0,73248.8,-3.73,-5.07,-5.07,0,*50
1515276355.49,55352,10.06,73252.5,-3.69,-5.03,-5.11,0,*5B
1515276356.77,55353,10.0,73248.3,-3.73,-4.93,-5.07,0,*5E
1515276358.05,55354,10.06,73248.8,-3.73,-5.03,-4.93,0,*5D
1515276359.33,55355,10.06,73248.5,-3.73,-5.07,-5.03,0,*50
1515276360.61,55356,10.0,73248.3,-3.73,-5.15,-5.15,0,*57
1515276361.9,55357,10.06,73254.5,-3.73,-5.15,-5.15,0,*56
1515276363.18,55358,10.0,73254.0,-3.73,-5.15,-5.15,0,*59
1515276364.46,55359,10.06,73254.8,-3.73,-5.15,-5.15,0,*58
1515276365.75,55360,10.0,73252.5,-3.73,-5.19,-5.07,0,*5D
1515276367.03,55361,10.06,73258.0,-3.73,-5.15,-5.15,0,*53
1515276368.28,55362,10.0,73256.3,-3.75,-5.15,-5.07,0,*55
1515276369.56,55363,10.06,73256.0,-3.73,-5.19,-5.15,0,*5D
1515276370.85,55364,10.06,73252.0,-3.73,-5.15,-5.07,0,*55
1515276372.13,55365,10.0,73250.8,-3.73,-5.15,-5.15,0,*57
1515276373.42,55366,10.06,73256.5,-3.73,-5.07,-5.07,0,*54
1515276374.7,55367,10.0,73254.0,-3.73,-5.07,-5.03,0,*51
1515276375.99,55368,10.0,73252.3,-3.73,-5.15,-5.07,0,*59
1515276377.28,55369,10.0,73254.3,-3.73,-5.07,-5.07,0,*5B
1515276378.56,55370,10.06,73252.8,-3.73,-5.07,-5.07,0,*53
1515276379.81,55371,10.0,73252.3,-3.71,-5.03,-4.99,0,*52
1515276381.09,55372,10.0,73254.0,-3.71,-5.03,-4.89,0,*50
1515276382.34,55373,10.0,73252.8,-3.75,-5.07,-4.93,0,*5A
1515276383.61,55374,10.0,73252.8,-3.73,-5.03,-4.93,0,*5F
1515276384.9,55375,10.06,73252.3,-3.73,-5.03,-5.03,0,*56
1515276386.18,55376,10.0,73250.0,-3.73,-5.03,-4.93,0,*5D
1515276387.45,55377,10.0,73252.5,-3.73,-4.93,-5.03,0,*5C
1515276388.73,55378,10.06,73252.8,-3.73,-5.03,-4.93,0,*53
1515276390.02,55379,10.0,73248.8,-3.73,-5.03,-5.03,0,*5A
1515276391.3,55380,10.06,73254.5,-3.73,-5.03,-4.93,0,*54
1515276392.58,55381,10.06,73252.0,-3.73,-5.03,-5.03,0,*5D
1515276393.83,55382,10.0,73250.3,-3.75,-5.03,-4.93,0,*50
1515276395.07,55383,10.0,73252.0,-3.71,-4.99,-4.89,0,*5C
1515276396.32,55384,10.06,73254.0,-3.71,-5.03,-4.99,0,*58
1515276397.57,55385,10.0,73254.8,-3.71,-5.03,-4.99,0,*59
1515276398.81,55386,10.0,73252.3,-3.71,-4.99,-4.89,0,*59
1515276400.05,55387,10.0,73248.0,-3.71,-4.99,-4.89,0,*58
1515276401.29,55388,10.06,73258.0,-3.71,-5.11,-4.99,0,*57
1515276402.57,55389,10.0,73256.5,-3.73,-5.07,-4.93,0,*59
1515276403.83,55390,10.0,73254.3,-3.75,-5.07,-5.03,0,*5F
1515276405.12,55391,10.0,73254.3,-3.73,-5.07,-5.03,0,*58
1515276406.4,55392,10.0,73252.8,-3.73,-5.15,-5.07,0,*5C
1515276407.69,55393,10.0,73252.5,-3.73,-5.07,-5.03,0,*5A
1515276408.97,55394,10.06,73254.5,-3.73,-5.07,-5.03,0,*5D
1515276410.22,55395,10.0,73254.3,-3.71,-5.03,-4.99,0,*58
1515276411.47,55396,10.0,73254.5,-3.71,-5.03,-4.99,0,*5B
1515276412.71,55397,10.0,73252.5,-3.71,-5.03,-4.99,0,*5A
1515276413.95,55398,10.0,73252.3,-3.71,-5.11,-4.99,0,*56
1515276415.24,55399,10.0,73250.3,-3.73,-5.07,-5.03,0,*50
1515276416.52,55400,10.0,73254.3,-3.73,-5.07,-4.93,0,*5F
1515276417.77,55401,10.0,73252.0,-3.73,-5.07,-4.99,0,*54
1515276419.06,55402,10.06,73256.0,-3.73,-5.15,-5.03,0,*56
1515276420.34,55403,10.0,73258.3,-3.73,-5.15,-5.07,0,*53
1515276421.63,55404,10.0,73256.3,-3.73,-5.15,-5.07,0,*54
1515276422.91,55405,10.0,73252.5,-3.73,-5.07,-4.93,0,*5A
1515276424.15,55406,10.06,73254.8,-3.71,-5.03,-4.99,0,*55
1515276425.44,55407,10.06,73256.5,-3.73,-5.03,-5.03,0,*54
1515276426.72,55408,10.0,73254.5,-3.73,-5.07,-4.93,0,*57
1515276428.0,55409,10.0,73254.8,-3.73,-5.03,-4.93,0,*52
1515276429.27,55410,10.0,73252.5,-3.73,-5.03,-4.93,0,*5A
1515276430.52,55411,10.0,73248.3,-3.71,-4.99,-4.89,0,*50
1515276431.73,55412,10.06,73256.0,-3.71,-4.99,-4.99,0,*52
1515276432.98,55413,10.0,73254.5,-3.71,-5.03,-4.99,0,*51
1515276434.22,55414,10.0,73254.3,-3.71,-5.03,-4.99,0,*56
1515276435.5,55415,10.0,73252.3,-3.73,-5.15,-4.93,0,*58
1515276436.79,55416,10.0,73252.8,-3.73,-5.07,-5.03,0,*50
1515276438.07,55417,10.06,73254.8,-3.73,-5.03,-4.93,0,*5D
1515276439.35,55418,10.06,73256.0,-3.73,-5.03,-5.03,0,*5A
1515276440.62,55419,10.06,73250.8,-3.73,-4.93,-4.93,0,*5B
1515276441.86,55420,10.06,73250.8,-3.75,-4.93,-4.93,0,*57
1515276443.13,55421,10.0,73250.8,-3.73,-5.03,-4.93,0,*58
1515276444.37,55422,10.0,73250.3,-3.75,-4.93,-4.93,0,*55
1515276445.64,55423,10.0,73246.5,-3.73,-4.93,-4.93,0,*52
1515276446.92,55424,10.06,73246.8,-3.73,-4.89,-4.93,0,*5E
1515276448.18,55425,10.0,73246.0,-3.73,-4.93,-4.93,0,*54
1515276449.46,55426,10.0,73246.5,-3.73,-5.03,-4.93,0,*5F
1515276450.74,55427,10.06,73248.0,-3.73,-4.89,-4.93,0,*5D
1515276452.01,55428,10.0,73244.5,-3.73,-4.93,-4.89,0,*52
1515276453.28,55429,10.06,73250.5,-3.73,-4.93,-4.89,0,*53
1515276454.54,55430,10.0,73246.3,-3.71,-4.85,-4.85,0,*52
1515276455.79,55431,10.06,73248.5,-3.75,-4.89,-4.89,0,*57
1515276457.07,55432,10.0,73244.3,-3.73,-5.03,-4.93,0,*5A
1515276458.32,55433,10.06,73250.0,-3.71,-4.89,-4.99,0,*50
1515276459.6,55434,10.06,73248.5,-3.73,-5.03,-5.03,0,*54
1515276460.87,55435,10.0,73240.8,-3.73,-4.93,-4.93,0,*55
1515276462.08,55436,10.0,73244.5,-3.71,-4.99,-4.99,0,*54
1515276463.36,55437,10.06,73246.3,-3.71,-5.03,-4.89,0,*56
1515276464.63,55438,10.06,73246.5,-3.71,-4.89,-4.85,0,*56
1515276465.91,55439,10.06,73246.0,-3.73,-4.93,-5.03,0,*51
1515276467.19,55440,10.0,73246.3,-3.73,-5.03,-5.07,0,*53
1515276468.48,55441,10.06,73248.8,-3.73,-5.03,-5.03,0,*56
1515276469.76,55442,10.06,73250.5,-3.73,-5.03,-4.93,0,*5D
1515276471.02,55443,10.06,73252.3,-3.73,-4.93,-4.93,0,*54
1515276472.3,55444,10.06,73254.3,-3.73,-4.89,-4.93,0,*58
1515276473.58,55445,10.0,73254.5,-3.73,-5.03,-5.03,0,*52
1515276474.86,55446,10.0,73252.8,-3.71,-5.03,-5.03,0,*53
1515276476.14,55447,10.06,73256.0,-3.73,-4.93,-5.07,0,*5C
1515276477.42,55448,10.06,73256.0,-3.73,-5.03,-4.93,0,*57
1515276478.69,55449,10.0,73252.3,-3.73,-4.89,-4.93,0,*55
1515276479.97,55450,10.0,73248.5,-3.73,-4.89,-4.89,0,*56
1515276481.24,55451,10.0,73250.5,-3.73,-4.89,-4.93,0,*5C
1515276482.51,55452,10.06,73258.5,-3.73,-4.93,-4.93,0,*54
1515276483.78,55453,10.0,73250.3,-3.73,-4.93,-4.93,0,*55
1515276485.06,55454,10.0,73246.3,-3.73,-5.15,-5.03,0,*55
1515276486.35,55455,10.0,73238.0,-3.73,-5.15,-5.15,0,*53
1515276487.63,55456,10.0,73234.3,-3.73,-5.15,-5.07,0,*53
1515276488.88,55457,10.0,73238.3,-3.71,-5.03,-4.99,0,*51
1515276490.16,55458,10.0,73242.8,-3.73,-5.03,-4.93,0,*56
1515276491.45,55459,10.0,73242.8,-3.73,-5.07,-5.07,0,*5F
1515276492.73,55460,10.0,73242.8,-3.73,-5.07,-5.07,0,*55
1515276494.02,55461,10.0,73230.3,-3.73,-5.03,-5.03,0,*54
1515276495.27,55462,10.0,73230.8,-3.75,-5.07,-5.15,0,*52
1515276496.52,55463,10.0,73226.8,-3.75,-5.15,-5.15,0,*50
1515276497.81,55464,10.06,73220.8,-3.73,-5.15,-5.15,0,*51
1515276499.09,55465,10.0,73214.3,-3.73,-5.19,-5.15,0,*5C
1515276500.37,55466,10.0,73214.3,-3.73,-5.19,-5.15,0,*5F
1515276501.65,55467,10.06,73216.8,-3.73,-5.27,-5.15,0,*53
1515276502.9,55468,10.06,73220.5,-3.75,-5.15,-5.19,0,*57
1515276504.18,55469,10.0,73206.3,-3.73,-5.15,-5.19,0,*50
1515276505.47,55470,10.06,73210.5,-3.73,-5.15,-5.07,0,*57
1515276506.72,55471,10.0,73212.0,-3.75,-5.15,-5.15,0,*53
1515276508.01,55472,10.06,73226.5,-3.73,-5.07,-5.07,0,*56
1515276509.27,55473,10.0,73230.8,-3.75,-5.07,-5.07,0,*51
1515276510.52,55474,10.0,73236.0,-3.75,-5.07,-5.03,0,*52
1515276511.8,55475,10.06,73246.0,-3.73,-5.07,-4.93,0,*5D
1515276513.09,55476,10.0,73244.5,-3.73,-5.07,-5.03,0,*56
1515276514.36,55477,10.0,73252.3,-3.73,-4.93,-4.93,0,*53
1515276515.59,55478,10.0,73250.0,-3.75,-4.93,-4.93,0,*5A
1515276516.87,55479,10.0,73248.3,-3.73,-4.93,-5.03,0,*55
1515276518.14,55480,10.0,73250.5,-3.73,-4.93,-5.03,0,*53
1515276519.42,55481,10.0,73244.5,-3.73,-4.93,-5.03,0,*52
1515276520.7,55482,10.0,73246.3,-3.73,-5.03,-5.03,0,*59
1515276521.96,55483,10.0,73246.3,-3.75,-5.03,-5.07,0,*5A
1515276523.25,55484,10.0,73240.0,-3.73,-5.07,-5.07,0,*5F